Location: Newark
(20.5800°N, 87.1197°W)
Time: 15:08:35
(UTC+00:00)

Envisat - Visible Passes

Search period start: 16 July 2019 00:00
Search period end: 26 July 2019 00:00
Orbit: 764 x 766 km, 98.1° (Epoch: 16 July)

Date Brightness Start Highest point End Pass type
(mag) Time Alt. Az. Time Alt. Az. Time Alt. Az.
17 Jul 5.1 01:08:54 10° SSW 01:13:08 27° W 01:17:22 10° NW visible
19 Jul 5.8 01:36:23 10° SW 01:38:43 13° W 01:41:03 10° WNW visible
20 Jul 4.7 00:57:16 10° SSW 01:01:52 35° W 01:06:29 10° NNW visible
22 Jul 5.6 01:24:04 10° SW 01:27:26 18° W 01:30:49 10° NW visible
23 Jul 4.1 00:45:45 10° S 00:50:37 48° W 00:55:31 10° NNW visible
25 Jul 5.3 01:12:08 10° SSW 01:16:10 24° W 01:20:12 10° NW visible
